Presure
156 106 109 144 141 163 141 105 102 104 123 163 127 123 264 284 268 202 226 75 233 213 213 121 197 237 167 217 173 185 176 163 162 139 164 166 107 165 159 144 118 140 142
144 133 120 139 149 155 105 135 193 129 107 164 126 239 193 170 208 215 215 245 213 213 240 200 216 215 212 170 201 174 191 178 154 174 151 139 170 102 156 155 90 134 80
138 149 134 160 149 153 162 160 146 125 114 235 178 221 234 173 220 199 190 190 197 201 214 195 192 151 170 205 134 100 91 175 114 178 150 117 105 171 163 160 146 106 95
130 171 193 180 140 171 164 203 123 120 125 242 243 228 237 238 227 192 188 205 196 192 202 184 192 203 185 194 183 184 171 205 183 104 116 117 135 141 156 149 102 153 123
163 163 118 111 188 114 136 132 118 198 233 251 241 237 231 237 214 182 212 200 197 191 187 187 181 173 139 195 198 204 183 112 134 166 130 120 162 168 136 155 166 158 139
161 165 156 103 174 122 113 199 206 244 224 241 222 236 229 246 243 207 213 185 197 192 154 175 157 185 184 171 196 195 188 185 99 142 159 112 112 163 156 126 146 158 149
126 130 143 175 200 204 187 192 208 233 214 255 226 225 245 237 226 206 193 201 197 179 187 189 186 173 180 181 182 190 187 128 118 156 185 148 115 125 134 164 123 131 138
141 163 195 192 168 165 195 190 232 226 211 265 232 238 230 223 233 209 201 194 202 195 168 173 177 183 82 173 179 181 174 173 180 90 115 197 145 125 165 152 165 137 142
169 174 145 147 183 195 189 225 228 213 212 250 225 232 220 226 226 181 176 174 196 204 194 185 175 163 132 175 174 174 185 182 183 168 96 193 184 131 99 158 132 120 131
183 193 190 177 194 204 188 226 212 206 254 248 219 229 228 225 178 164 153 196 175 183 187 172 181 165 169 172 170 170 185 174 173 93 132 109 186 91 127 95 152 129 133
193 185 190 194 187 180 222 224 199 202 246 225 251 230 221 218 178 198 158 156 148 146 168 165 180 170 174 173 168 177 186 173 177 173 174 88 83 195 127 191 95 119 104
186 190 195 189 183 214 220 210 194 196 225 218 242 226 212 192 167 166 159 162 160 170 159 192 176 182 177 182 177 183 145 138 83 119 141 106 135 76 176 165 109 152 94
188 196 178 179 209 215 221 199 196 187 229 215 237 222 205 184 169 162 177 182 162 155 157 182 180 181 179 191 181 92 169 181 184 117 164 91 83 83 121 95 165 145 157
182 173 183 210 221 214 210 193 191 183 186 208 234 215 198 189 180 163 187 178 188 135 173 181 169 181 181 171 182 174 160 179 164 178 157 175 175 105 165 183 89 93 174
174 182 184 193 191 214 193 190 187 179 170 181 224 219 213 186 176 166 175 181 202 161 183 161 184 178 175 165 179 166 188 164 187 179 169 176 168 171 162 177 182 153 166
184 209 197 204 212 212 197 193 187 180 167 186 168 192 208 200 185 189 190 186 174 200 170 177 162 180 180 184 184 168 161 184 166 185 170 174 170 169 174 172 155 98 163
191 213 209 211 191 179 198 199 187 178 168 162 177 200 191 193 198 192 175 179 175 205 180 177 180 162 141 173 174 163 164 176 180 166 170 170 175 174 174 157 160 168 167
199 201 186 160 167 203 199 197 187 176 170 164 192 223 192 213 200 178 175 189 176 187 186 159 146 193 133 177 169 172 166 163 174 174 171 181 166 170 165 162 169 163 165
180 184 173 169 180 194 184 190 192 172 171 164 157 190 202 183 192 188 175 174 173 174 169 193 165 147 149 163 188 175 168 175 170 167 162 172 164 152 162 167 159 180 169
172 189 182 167 187 188 185 198 194 180 163 170 161 191 192 185 180 189 170 173 175 183 179 178 165 160 160 154 173 177 178 170 177 180 169 172 178 174 167 164 167 161 158
170 168 173 169 176 182 195 203 181 182 164 168 170 173 191 226 188 177 176 169 168 195 179 177 197 185 150 145 189 189 174 175 202 183 182 180 175 177 170 174 186 175 183
179 172 160 168 167 173 185 162 180 175 175 166 168 174 166 180 211 187 185 183 175 172 190 187 196 177 168 169 179 165 193 153 199 170 175 178 178 187 168 150 168 177 189
183 178 176 177 173 170 174 178 161 165 168 173 174 159 177 164 165 188 186 180 186 185 172 162 172 170 182 159 162 176 192 154 178 155 171 142 176 140 170 196 171 173 167
186 181 183 167 166 165 171 190 172 169 165 175 167 169 159 164 166 173 158 202 174 167 187 172 171 164 177 186 182 169 162 194 173 146 152 167 145 173 151 144 149 165 152
198 189 183 182 178 179 140 177 171 176 183 167 165 154 169 147 162 178 177 165 191 208 191 182 189 183 170 175 180 159 174 158 176 165 152 153 141 155 166 152 186 152 169
182 189 179 185 150 186 175 186 148 179 161 164 177 165 153 155 160 166 157 165 172 168 163 186 202 184 184 187 187 177 177 187 171 155 176 173 170 164 156 174 151 177 153
Wind_Speed
66 39 40 53 46 66 49 37 37 37 40 52 43 44 44 34 24 29 26 23 22 29 30 31 41 36 38 46 55 54 54 55 66 48 68 71 44 62 66 57 40 52 51
56 49 45 46 56 59 40 50 67 46 41 51 46 32 36 35 27 20 14 9 18 19 24 37 35 37 41 47 50 47 56 61 63 65 56 49 69 39 64 65 33 55 17
58 59 45 73 58 59 65 60 52 50 44 44 47 40 32 36 28 34 34 26 20 19 24 31 31 41 41 41 49 28 26 61 41 63 57 41 42 68 67 67 62 38 36
53 75 69 74 58 73 68 60 53 52 50 47 35 35 28 30 31 31 33 25 20 22 29 33 30 29 42 37 49 46 49 54 63 38 43 44 47 50 61 62 42 64 49
66 76 53 53 75 50 54 54 56 54 47 39 29 27 27 24 23 33 35 30 24 25 31 35 37 41 34 36 42 42 53 37 58 66 50 45 68 69 56 61 70 70 54
75 78 73 52 72 56 57 63 60 53 43 33 32 23 26 26 30 29 38 30 23 31 46 42 47 41 46 50 42 48 53 54 37 61 70 46 46 70 67 49 58 67 57
62 60 62 79 74 72 64 58 62 49 39 27 26 22 18 21 27 35 35 39 37 38 40 43 49 50 47 48 53 50 50 39 39 56 64 61 47 52 52 69 50 50 54
70 75 81 76 66 66 65 57 57 45 34 24 22 21 19 25 37 37 33 31 46 34 41 50 50 47 36 57 55 53 55 60 56 40 43 59 64 55 76 68 72 44 59
82 84 71 66 73 69 64 59 45 41 34 21 22 28 25 34 36 24 20 22 28 35 48 55 54 56 51 60 60 60 55 54 55 47 43 60 67 55 41 71 51 58 56
91 82 79 73 72 68 62 51 42 38 21 20 18 35 33 38 31 32 46 28 38 35 45 46 61 63 65 66 63 59 59 58 60 48 46 39 59 36 50 39 71 55 59
75 80 76 70 67 61 56 43 42 36 19 19 24 38 31 36 39 34 45 54 42 48 41 50 61 62 68 68 60 63 61 61 61 59 60 39 37 51 50 52 43 49 45
79 74 70 69 64 55 46 40 39 36 20 20 25 39 30 46 45 40 56 67 55 48 49 61 61 70 71 73 69 65 52 51 46 46 56 42 51 35 65 68 57 70 42
77 70 69 67 69 49 34 40 37 34 21 22 27 41 34 55 51 54 60 57 50 45 48 58 64 67 71 72 68 44 48 58 60 53 56 49 45 40 46 48 64 61 70
74 67 67 62 47 41 34 38 35 32 29 22 34 41 37 63 60 51 73 58 60 52 47 58 59 64 68 64 67 60 43 58 57 61 59 64 61 63 62 58 49 47 65
75 69 64 61 54 42 39 37 35 35 32 28 38 52 55 59 62 52 56 65 60 34 56 54 60 62 65 60 68 60 64 51 59 62 62 60 60 62 59 62 60 65 72
76 71 70 60 49 43 40 37 37 37 36 29 37 32 60 65 64 70 66 71 50 68 49 60 56 61 66 68 68 57 50 63 58 65 60 62 65 62 64 65 63 66 64
70 55 56 54 47 45 42 39 39 38 38 37 32 45 39 59 73 74 53 57 51 64 56 50 60 56 55 67 67 58 53 57 57 57 62 62 63 67 65 63 66 67 68
62 62 57 46 43 47 45 42 42 41 41 41 33 56 46 72 74 63 57 72 48 59 57 50 50 66 62 71 65 70 64 58 63 60 63 67 63 66 65 66 67 68 68
69 63 55 49 48 51 48 43 45 42 44 44 42 35 61 45 69 77 54 53 52 49 49 61 61 56 50 50 73 76 66 73 66 64 63 68 68 65 67 70 67 67 66
69 64 59 53 54 53 50 50 47 47 45 45 45 37 44 61 52 78 61 62 59 70 57 60 46 47 50 50 53 68 70 66 74 74 68 70 75 72 71 69 68 69 70
71 69 63 59 58 55 56 56 47 49 45 47 46 43 41 69 59 58 68 58 56 80 61 58 75 66 61 65 63 58 60 64 59 72 73 73 76 72 70 72 73 68 68
75 73 65 64 61 58 55 52 48 50 50 46 50 48 51 41 74 66 69 77 76 65 75 73 72 63 56 54 57 55 63 68 59 60 64 68 70 71 66 70 70 69 69
80 78 74 72 70 63 56 56 48 51 51 54 54 56 51 53 51 48 60 62 80 84 66 59 58 59 66 62 62 64 68 68 57 69 56 78 63 65 60 60 64 66 69
82 82 83 77 70 67 60 64 56 53 52 58 53 55 57 56 54 51 60 74 61 60 81 73 66 59 68 77 73 66 68 75 68 79 75 64 79 61 75 79 77 70 79
86 87 87 85 80 78 66 64 66 60 63 58 56 61 60 62 60 54 55 59 57 78 80 78 86 83 67 73 76 74 69 77 72 75 82 83 84 79 69 84 69 83 70
88 90 91 88 84 84 73 74 59 65 63 59 60 60 65 66 64 58 65 62 62 63 65 68 85 81 84 86 88 79 79 81 83 81 81 75 75 84 88 69 83 71 85
Wind_Direction
287 263 265 288 286 290 279 259 258 260 267 289 275 271 294 282 279 267 263 237 241 232 221 237 229 224 226 222 229 223 222 224 223 224 224 226 223 228 232 240 236 239 239
285 281 272 281 287 293 263 278 303 274 261 290 275 290 281 271 273 253 259 269 230 221 232 226 213 214 217 230 217 221 217 218 231 220 220 240 226 225 234 233 232 232 235
282 284 278 292 291 293 292 296 284 272 265 297 288 291 266 266 240 255 261 250 218 218 211 220 207 232 223 216 239 231 245 220 238 216 218 229 230 225 227 230 232 236 242
277 289 292 293 278 293 293 302 273 272 275 297 286 283 262 240 230 253 260 210 201 208 203 221 217 207 219 220 218 219 219 219 213 240 230 233 237 233 227 234 234 236 240
282 287 267 267 297 269 280 273 271 297 303 291 280 267 265 243 238 250 222 223 190 191 197 202 213 224 224 212 215 213 220 233 240 221 229 230 227 225 233 230 227 233 238
286 286 290 269 296 272 270 304 309 308 301 287 286 255 257 223 217 224 202 224 193 179 231 206 227 239 210 222 214 210 213 217 236 229 227 234 235 229 233 240 237 236 234
273 280 287 297 301 301 297 304 310 305 300 267 272 250 219 199 189 205 221 205 201 213 187 196 199 220 211 212 221 215 216 223 226 219 219 229 236 232 241 232 237 238 235
284 288 297 297 293 291 303 305 307 301 298 240 244 211 193 195 188 192 206 231 193 209 219 211 208 198 236 217 216 217 218 218 214 234 229 224 229 234 228 238 233 230 241
293 295 285 283 295 299 301 308 302 303 296 250 242 192 203 197 188 188 204 245 235 210 195 198 203 223 228 215 217 220 212 212 215 220 237 223 223 227 238 234 225 237 239
291 292 294 295 293 296 300 303 299 300 264 247 244 191 196 193 170 195 227 169 222 224 203 210 202 220 221 222 227 226 213 214 219 235 228 236 227 236 233 240 242 240 241
292 290 290 291 293 296 298 293 296 294 263 256 202 195 197 183 163 153 199 220 227 225 212 226 213 224 222 227 235 221 214 222 218 219 222 242 238 230 236 233 245 239 247
285 286 286 290 293 291 292 285 291 289 269 248 202 195 193 176 194 199 215 211 220 214 216 212 224 216 222 222 227 216 236 230 245 230 233 236 234 243 230 235 244 242 245
283 284 286 288 293 287 275 282 283 285 258 245 208 193 191 185 202 221 211 212 224 225 226 214 217 217 224 220 226 247 242 228 219 239 234 249 251 247 239 254 237 241 242
282 282 286 288 278 275 270 277 275 277 270 242 206 200 195 188 199 238 201 221 221 232 215 214 230 220 224 235 231 236 233 229 236 228 237 232 233 246 235 235 249 243 234
279 282 284 284 281 267 276 268 267 269 262 247 207 200 196 196 211 237 231 223 217 233 222 228 223 229 226 238 234 235 236 233 223 227 233 235 236 235 239 241 239 240 238
278 281 281 278 269 261 266 256 260 260 260 244 240 223 197 200 211 209 212 216 237 221 228 227 230 226 232 234 235 239 237 235 233 230 236 236 239 241 239 239 241 250 245
277 270 271 267 271 273 260 248 250 253 256 253 240 217 219 210 208 207 229 232 244 225 228 224 222 233 235 234 237 243 239 243 240 236 240 240 239 239 243 245 245 246 246
269 269 272 260 268 258 258 249 245 250 251 253 240 211 226 208 208 224 237 226 241 241 234 222 223 221 239 226 234 237 242 239 242 242 239 239 245 244 242 245 246 246 250
269 269 266 265 267 264 263 253 242 248 247 250 247 225 218 224 217 216 235 241 243 242 241 238 228 225 235 245 227 232 239 238 243 239 235 242 239 242 243 246 245 250 247
265 268 268 258 261 262 259 250 240 239 247 248 249 239 226 222 226 219 235 238 242 236 241 238 232 235 239 240 238 238 236 241 247 242 242 241 244 245 243 245 246 247 249
261 262 260 259 262 260 255 249 242 241 245 246 245 234 227 221 223 226 230 240 243 227 245 246 239 243 226 229 244 243 238 241 239 241 242 243 244 246 245 250 251 251 250
256 258 252 255 256 255 254 240 243 240 243 243 244 234 240 229 223 225 228 233 238 243 238 244 239 251 241 242 255 240 248 243 239 237 238 243 245 245 244 245 247 249 246
255 256 256 255 255 252 251 245 239 240 242 242 237 242 234 240 239 235 234 235 237 242 246 242 246 242 249 234 241 256 254 233 257 235 238 244 240 249 246 252 247 249 245
249 252 253 255 247 247 246 246 243 241 242 241 240 241 241 242 237 232 242 235 242 240 242 248 247 240 252 256 255 242 238 251 254 244 236 236 245 241 240 247 249 246 248
245 247 249 251 250 250 261 246 238 244 243 239 238 238 240 246 241 236 235 239 236 237 242 243 246 251 246 252 255 238 253 236 255 239 236 233 251 251 242 243 261 244 253
245 246 248 249 258 246 246 249 255 244 228 231 238 237 239 243 245 240 242 241 241 240 243 245 245 248 250 253 254 255 251 259 247 245 258 250 247 243 238 258 254 260 250